TimeEDT,TemperatureF,Dew PointF,Humidity,Sea Level PressureIn,VisibilityMPH,Wind Direction,Wind SpeedMPH,Gust SpeedMPH,PrecipitationIn,Events,Conditions,WindDirDegrees,DateUTC
12:53 AM,53.1,51.1,93,30.27,8.0,North,6.9,-,0.01,,Overcast,10,2013-05-01 04:53:00
1:16 AM,53.6,51.8,94,30.28,9.0,NNE,4.6,-,0.00,Rain,Light Rain,20,2013-05-01 05:16:00
1:26 AM,53.6,51.8,94,30.28,10.0,North,4.6,-,0.01,Rain,Light Rain,10,2013-05-01 05:26:00
2:53 AM,54.0,50.0,86,30.26,10.0,NNE,6.9,-,N/A,,Overcast,20,2013-05-01 06:53:00
3:53 AM,53.1,50.0,89,30.27,10.0,North,4.6,-,N/A,,Overcast,360,2013-05-01 07:53:00
4:53 AM,54.0,48.0,80,30.27,10.0,NE,9.2,-,N/A,,Overcast,40,2013-05-01 08:53:00
5:53 AM,53.1,48.0,83,30.29,10.0,NE,9.2,-,N/A,,Overcast,40,2013-05-01 09:53:00
6:53 AM,53.1,46.9,80,30.31,10.0,NNE,8.1,-,N/A,,Overcast,30,2013-05-01 10:53:00
7:34 AM,53.6,46.4,77,30.33,10.0,NNE,6.9,-,N/A,,Overcast,20,2013-05-01 11:34:00
7:53 AM,54.0,46.0,75,30.33,10.0,NNE,6.9,-,N/A,,Overcast,20,2013-05-01 11:53:00
8:53 AM,55.9,45.0,67,30.35,10.0,North,5.8,-,N/A,,Overcast,10,2013-05-01 12:53:00
9:53 AM,60.1,45.0,57,30.35,10.0,NE,12.7,-,N/A,,Scattered Clouds,50,2013-05-01 13:53:00
10:53 AM,63.0,39.0,41,30.36,10.0,ENE,11.5,-,N/A,,Partly Cloudy,60,2013-05-01 14:53:00
11:53 AM,64.9,36.0,34,30.36,10.0,NE,10.4,-,N/A,,Clear,40,2013-05-01 15:53:00
12:53 PM,66.0,35.1,32,30.34,10.0,East,8.1,17.3,N/A,,Clear,90,2013-05-01 16:53:00
1:53 PM,68.0,37.9,33,30.33,10.0,ENE,11.5,20.7,N/A,,Clear,60,2013-05-01 17:53:00
2:53 PM,69.1,37.0,31,30.33,10.0,ENE,11.5,19.6,N/A,,Clear,70,2013-05-01 18:53:00
3:53 PM,70.0,36.0,29,30.32,10.0,ENE,9.2,16.1,N/A,,Clear,70,2013-05-01 19:53:00
4:53 PM,70.0,37.9,31,30.32,10.0,ENE,11.5,-,N/A,,Scattered Clouds,60,2013-05-01 20:53:00
5:53 PM,70.0,35.1,28,30.32,10.0,East,10.4,18.4,N/A,,Mostly Cloudy,80,2013-05-01 21:53:00
6:53 PM,66.9,39.0,36,30.32,10.0,East,8.1,17.3,N/A,,Overcast,100,2013-05-01 22:53:00
7:53 PM,64.0,44.1,48,30.34,10.0,SE,6.9,-,N/A,,Overcast,130,2013-05-01 23:53:00
8:28 PM,64.4,44.6,49,30.36,10.0,ESE,6.9,-,N/A,,Overcast,120,2013-05-02 00:28:00
8:53 PM,63.0,42.1,46,30.36,10.0,ESE,6.9,-,N/A,,Overcast,110,2013-05-02 00:53:00
9:53 PM,62.1,39.9,44,30.38,10.0,East,3.5,-,N/A,,Overcast,100,2013-05-02 01:53:00
10:53 PM,61.0,39.9,46,30.39,10.0,East,3.5,-,N/A,,Overcast,100,2013-05-02 02:53:00
11:53 PM,59.0,43.0,55,30.39,10.0,Calm,Calm,-,N/A,,Overcast,0,2013-05-02 03:53:00